Year,Month,Day,Hour,Minute,Value (Times are PST for temperature in C)
2016,05,01,00,00,7.70
2016,05,01,00,01,7.80
2016,05,01,00,02,7.80
2016,05,01,00,03,7.80
2016,05,01,00,04,7.80
2016,05,01,00,05,7.80
2016,05,01,00,06,7.80
2016,05,01,00,07,7.80
2016,05,01,00,08,7.80
2016,05,01,00,09,7.70
2016,05,01,00,10,7.70
2016,05,01,00,11,7.70
2016,05,01,00,12,7.70
2016,05,01,00,13,7.70
2016,05,01,00,14,7.70
2016,05,01,00,15,7.70
2016,05,01,00,16,7.60
2016,05,01,00,17,7.60
2016,05,01,00,18,7.60
2016,05,01,00,19,7.50
2016,05,01,00,20,7.40
2016,05,01,00,21,7.40
2016,05,01,00,22,7.40
2016,05,01,00,23,7.40
2016,05,01,00,24,7.50
2016,05,01,00,25,7.50
2016,05,01,00,26,7.50
2016,05,01,00,27,7.60
2016,05,01,00,28,7.60
2016,05,01,00,29,7.50
2016,05,01,00,30,7.50
2016,05,01,00,31,7.40
2016,05,01,00,32,7.40
2016,05,01,00,33,7.40
2016,05,01,00,34,7.40
2016,05,01,00,35,7.40
2016,05,01,00,36,7.40
2016,05,01,00,37,7.40
2016,05,01,00,38,7.40
2016,05,01,00,39,7.40
2016,05,01,00,40,7.40
2016,05,01,00,41,7.50
2016,05,01,00,42,7.40
2016,05,01,00,43,7.40
2016,05,01,00,44,7.40
2016,05,01,00,45,7.40
2016,05,01,00,46,7.40
2016,05,01,00,47,7.40
2016,05,01,00,48,7.40
2016,05,01,00,49,7.30
2016,05,01,00,50,7.40
2016,05,01,00,51,7.40
2016,05,01,00,52,7.40
2016,05,01,00,53,7.30
2016,05,01,00,54,7.30
2016,05,01,00,55,7.30
2016,05,01,00,56,7.30
2016,05,01,00,57,7.30
2016,05,01,00,58,7.30
2016,05,01,00,59,7.30
2016,05,01,01,00,7.30
2016,05,01,01,01,7.30
2016,05,01,01,02,7.30
2016,05,01,01,03,7.30
2016,05,01,01,04,7.20
2016,05,01,01,05,7.30
2016,05,01,01,06,7.30
2016,05,01,01,07,7.30
2016,05,01,01,08,7.20
2016,05,01,01,09,7.20
2016,05,01,01,10,7.30
2016,05,01,01,11,7.30
2016,05,01,01,12,7.30
2016,05,01,01,13,7.30
2016,05,01,01,14,7.30
2016,05,01,01,15,7.30
2016,05,01,01,16,7.30
2016,05,01,01,17,7.30
2016,05,01,01,18,7.30
2016,05,01,01,19,7.30
2016,05,01,01,20,7.30
2016,05,01,01,21,7.30
2016,05,01,01,22,7.30
2016,05,01,01,23,7.30
2016,05,01,01,24,7.30
2016,05,01,01,25,7.30
2016,05,01,01,26,7.30
2016,05,01,01,27,7.20
2016,05,01,01,28,7.20
2016,05,01,01,29,7.20
2016,05,01,01,30,7.20
2016,05,01,01,31,7.30
2016,05,01,01,32,7.20
2016,05,01,01,33,7.20
2016,05,01,01,34,7.20
2016,05,01,01,35,7.20
2016,05,01,01,36,7.20
2016,05,01,01,37,7.20
2016,05,01,01,38,7.20
2016,05,01,01,39,7.20
2016,05,01,01,40,7.20
2016,05,01,01,41,7.20
2016,05,01,01,42,7.20
2016,05,01,01,43,7.20
2016,05,01,01,44,7.20
2016,05,01,01,45,7.20
2016,05,01,01,46,7.10
2016,05,01,01,47,7.20
2016,05,01,01,48,7.20
2016,05,01,01,49,7.20
2016,05,01,01,50,7.20
2016,05,01,01,51,7.20
2016,05,01,01,52,7.20
2016,05,01,01,53,7.20
2016,05,01,01,54,7.20
2016,05,01,01,55,7.20
2016,05,01,01,56,7.20
2016,05,01,01,57,7.20
2016,05,01,01,58,7.20
2016,05,01,01,59,7.30
2016,05,01,02,00,7.30
2016,05,01,02,01,7.20
2016,05,01,02,02,7.20
2016,05,01,02,03,7.20
2016,05,01,02,04,7.20
2016,05,01,02,05,7.20
2016,05,01,02,06,7.20
2016,05,01,02,07,7.20
2016,05,01,02,08,7.20
2016,05,01,02,09,7.10
2016,05,01,02,10,7.10
2016,05,01,02,11,7.10
2016,05,01,02,12,7.10
2016,05,01,02,13,7.10
2016,05,01,02,14,7.10
2016,05,01,02,15,7.10
2016,05,01,02,16,7.10
2016,05,01,02,17,7.10
2016,05,01,02,18,7.10
2016,05,01,02,19,7.10
2016,05,01,02,20,7.10
2016,05,01,02,21,7.10
2016,05,01,02,22,7.10
2016,05,01,02,23,7.10
2016,05,01,02,24,7.10
2016,05,01,02,25,7.10
2016,05,01,02,26,7.10
2016,05,01,02,27,7.10
2016,05,01,02,28,7.10
2016,05,01,02,29,7.10
2016,05,01,02,30,7.10
2016,05,01,02,31,7.10
2016,05,01,02,32,7.10
2016,05,01,02,33,7.10
2016,05,01,02,34,7.10
2016,05,01,02,35,7.10
2016,05,01,02,36,7.20
2016,05,01,02,37,7.20
2016,05,01,02,38,7.20
2016,05,01,02,39,7.20
2016,05,01,02,40,7.20
2016,05,01,02,41,7.20
2016,05,01,02,42,7.10
2016,05,01,02,43,7.10
2016,05,01,02,44,7.10
2016,05,01,02,45,7.20
2016,05,01,02,46,7.20
2016,05,01,02,47,7.20
2016,05,01,02,48,7.20
2016,05,01,02,49,7.20
2016,05,01,02,50,7.20
2016,05,01,02,51,7.20
2016,05,01,02,52,7.20
2016,05,01,02,53,7.20
2016,05,01,02,54,7.10
2016,05,01,02,55,7.10
2016,05,01,02,56,7.10
2016,05,01,02,57,7.10
2016,05,01,02,58,7.10
2016,05,01,02,59,7.10
2016,05,01,03,00,7.10
2016,05,01,03,01,7.20
2016,05,01,03,02,7.20
2016,05,01,03,03,7.20
2016,05,01,03,04,7.10
2016,05,01,03,05,7.10
2016,05,01,03,06,7.10
2016,05,01,03,07,7.10
2016,05,01,03,08,7.10
2016,05,01,03,09,7.20
2016,05,01,03,10,7.20
2016,05,01,03,11,7.10
2016,05,01,03,12,7.10
2016,05,01,03,13,7.10
2016,05,01,03,14,7.00
2016,05,01,03,15,6.90
2016,05,01,03,16,6.90
2016,05,01,03,17,6.90
2016,05,01,03,18,7.00
2016,05,01,03,19,7.00
2016,05,01,03,20,7.00
2016,05,01,03,21,7.10
2016,05,01,03,22,7.10
2016,05,01,03,23,7.10
2016,05,01,03,24,7.10
2016,05,01,03,25,7.10
2016,05,01,03,26,7.10
2016,05,01,03,27,7.10
2016,05,01,03,28,7.10
2016,05,01,03,29,7.10
2016,05,01,03,30,7.10
2016,05,01,03,31,7.10
2016,05,01,03,32,7.10
2016,05,01,03,33,7.10
2016,05,01,03,34,7.00
2016,05,01,03,35,6.90
2016,05,01,03,36,6.90
2016,05,01,03,37,6.90
2016,05,01,03,38,6.90
2016,05,01,03,39,6.90
2016,05,01,03,40,6.90
2016,05,01,03,41,6.90
2016,05,01,03,42,6.90
2016,05,01,03,43,6.90
2016,05,01,03,44,7.00
2016,05,01,03,45,7.00
2016,05,01,03,46,7.10
2016,05,01,03,47,7.10
2016,05,01,03,48,7.10
2016,05,01,03,49,7.10
2016,05,01,03,50,7.10
2016,05,01,03,51,7.10
2016,05,01,03,52,7.10
2016,05,01,03,53,7.10
2016,05,01,03,54,7.10
2016,05,01,03,55,7.00
2016,05,01,03,56,6.90
2016,05,01,03,57,6.90
2016,05,01,03,58,6.80
2016,05,01,03,59,6.80
2016,05,01,04,00,6.80
2016,05,01,04,01,6.70
2016,05,01,04,02,6.70
2016,05,01,04,03,6.70
2016,05,01,04,04,6.80
2016,05,01,04,05,6.80
2016,05,01,04,06,6.70
2016,05,01,04,07,6.70
2016,05,01,04,08,6.70
2016,05,01,04,09,6.70
2016,05,01,04,10,6.80
2016,05,01,04,11,6.80
2016,05,01,04,12,6.80
2016,05,01,04,13,6.80
2016,05,01,04,14,6.80
2016,05,01,04,15,6.80
2016,05,01,04,16,6.90
2016,05,01,04,17,6.80
2016,05,01,04,18,6.80
2016,05,01,04,19,6.80
2016,05,01,04,20,6.90
2016,05,01,04,21,6.90
2016,05,01,04,22,6.90
2016,05,01,04,23,6.90
2016,05,01,04,24,6.90
2016,05,01,04,25,6.90
2016,05,01,04,26,6.90
2016,05,01,04,27,6.90
2016,05,01,04,28,6.90
2016,05,01,04,29,6.90
2016,05,01,04,30,6.90
2016,05,01,04,31,6.90
2016,05,01,04,32,6.90
2016,05,01,04,33,6.80
2016,05,01,04,34,6.80
2016,05,01,04,35,6.70
2016,05,01,04,36,6.70
2016,05,01,04,37,6.80
2016,05,01,04,38,6.80
2016,05,01,04,39,6.80
2016,05,01,04,40,6.80
2016,05,01,04,41,6.80
2016,05,01,04,42,6.70
2016,05,01,04,43,6.70
2016,05,01,04,44,6.70
2016,05,01,04,45,6.70
2016,05,01,04,46,6.70
2016,05,01,04,47,6.60
2016,05,01,04,48,6.60
2016,05,01,04,49,6.60
2016,05,01,04,50,6.60
2016,05,01,04,51,6.70
2016,05,01,04,52,6.70
2016,05,01,04,53,6.70
2016,05,01,04,54,6.70
2016,05,01,04,55,6.70
2016,05,01,04,56,6.70
2016,05,01,04,57,6.70
2016,05,01,04,58,6.70
2016,05,01,04,59,6.70
2016,05,01,05,00,6.70
2016,05,01,05,01,6.70
2016,05,01,05,02,6.70
2016,05,01,05,03,6.70
2016,05,01,05,04,6.70
2016,05,01,05,05,6.70
2016,05,01,05,06,6.70
2016,05,01,05,07,6.70
2016,05,01,05,08,6.70
2016,05,01,05,09,6.70
2016,05,01,05,10,6.70
2016,05,01,05,11,6.70
2016,05,01,05,12,6.60
2016,05,01,05,13,6.60
2016,05,01,05,14,6.60
2016,05,01,05,15,6.60
2016,05,01,05,16,6.60
2016,05,01,05,17,6.60
2016,05,01,05,18,6.60
2016,05,01,05,19,6.60
2016,05,01,05,20,6.60
2016,05,01,05,21,6.70
2016,05,01,05,22,6.70
2016,05,01,05,23,6.80
2016,05,01,05,24,6.80
2016,05,01,05,25,6.80
2016,05,01,05,26,6.70
2016,05,01,05,27,6.70
2016,05,01,05,28,6.70
2016,05,01,05,29,6.70
2016,05,01,05,30,6.60
2016,05,01,05,31,6.70
2016,05,01,05,32,6.70
2016,05,01,05,33,6.80
2016,05,01,05,34,6.80
2016,05,01,05,35,6.80
2016,05,01,05,36,6.80
2016,05,01,05,37,6.70
2016,05,01,05,38,6.70
2016,05,01,05,39,6.70
2016,05,01,05,40,6.80
2016,05,01,05,41,6.80
2016,05,01,05,42,6.80
2016,05,01,05,43,6.80
2016,05,01,05,44,6.80
2016,05,01,05,45,6.80
2016,05,01,05,46,6.80
2016,05,01,05,47,6.80
2016,05,01,05,48,6.80
2016,05,01,05,49,6.80
2016,05,01,05,50,6.70
2016,05,01,05,51,6.70
2016,05,01,05,52,6.70
2016,05,01,05,53,6.70
2016,05,01,05,54,6.70
2016,05,01,05,55,6.70
2016,05,01,05,56,6.70
2016,05,01,05,57,6.70
2016,05,01,05,58,6.80
2016,05,01,05,59,6.80
2016,05,01,06,00,6.80
2016,05,01,06,01,6.80
2016,05,01,06,02,6.80
2016,05,01,06,03,6.80
2016,05,01,06,04,6.80
2016,05,01,06,05,6.80
2016,05,01,06,06,6.80
2016,05,01,06,07,6.80
2016,05,01,06,08,6.80
2016,05,01,06,09,6.80
2016,05,01,06,10,6.80
2016,05,01,06,11,6.80
2016,05,01,06,12,6.80
2016,05,01,06,13,6.80
2016,05,01,06,14,6.80
2016,05,01,06,15,6.80
2016,05,01,06,16,6.80
2016,05,01,06,17,6.80
2016,05,01,06,18,6.80
2016,05,01,06,19,6.90
2016,05,01,06,20,6.90
2016,05,01,06,21,6.90
2016,05,01,06,22,6.80
2016,05,01,06,23,6.80
2016,05,01,06,24,6.80
2016,05,01,06,25,6.90
2016,05,01,06,26,6.90
2016,05,01,06,27,6.90
2016,05,01,06,28,6.90
2016,05,01,06,29,6.90
2016,05,01,06,30,6.90
2016,05,01,06,31,6.90
2016,05,01,06,32,6.90
2016,05,01,06,33,6.90
2016,05,01,06,34,6.90
2016,05,01,06,35,6.90
2016,05,01,06,36,6.90
2016,05,01,06,37,6.90
2016,05,01,06,38,6.90
2016,05,01,06,39,6.90
2016,05,01,06,40,7.00
2016,05,01,06,41,7.00
2016,05,01,06,42,7.00
2016,05,01,06,43,7.00
2016,05,01,06,44,7.00
2016,05,01,06,45,6.90
2016,05,01,06,46,6.90
2016,05,01,06,47,6.90
2016,05,01,06,48,6.90
2016,05,01,06,49,6.90
2016,05,01,06,50,6.90
2016,05,01,06,51,7.00
2016,05,01,06,52,7.00
2016,05,01,06,53,7.00
2016,05,01,06,54,7.00
2016,05,01,06,55,7.00
2016,05,01,06,56,7.00
2016,05,01,06,57,7.00
2016,05,01,06,58,7.00
2016,05,01,06,59,7.00
2016,05,01,07,00,7.00
2016,05,01,07,01,7.00
2016,05,01,07,02,7.00
2016,05,01,07,03,7.00
2016,05,01,07,04,7.00
2016,05,01,07,05,7.00
2016,05,01,07,06,7.00
2016,05,01,07,07,7.10
2016,05,01,07,08,7.10
2016,05,01,07,09,7.10
2016,05,01,07,10,7.10
2016,05,01,07,11,7.10
2016,05,01,07,12,7.10
2016,05,01,07,13,7.10
2016,05,01,07,14,7.10
2016,05,01,07,15,7.20
2016,05,01,07,16,7.20
2016,05,01,07,17,7.20
2016,05,01,07,18,7.20
2016,05,01,07,19,7.30
2016,05,01,07,20,7.30
2016,05,01,07,21,7.40
2016,05,01,07,22,7.40
2016,05,01,07,23,7.50
2016,05,01,07,24,7.50
2016,05,01,07,25,7.60
2016,05,01,07,26,7.60
2016,05,01,07,27,7.70
2016,05,01,07,28,7.70
2016,05,01,07,29,7.80
2016,05,01,07,30,7.90
2016,05,01,07,31,7.90
2016,05,01,07,32,8.00
2016,05,01,07,33,8.00
2016,05,01,07,34,8.10
2016,05,01,07,35,8.20
2016,05,01,07,36,8.20
2016,05,01,07,37,8.30
2016,05,01,07,38,8.30
2016,05,01,07,39,8.30
2016,05,01,07,40,8.40
2016,05,01,07,41,8.40
2016,05,01,07,42,8.40
2016,05,01,07,43,8.50
2016,05,01,07,44,8.60
2016,05,01,07,45,8.60
2016,05,01,07,46,8.70
2016,05,01,07,47,8.80
2016,05,01,07,48,8.80
2016,05,01,07,49,8.80
2016,05,01,07,50,8.90
2016,05,01,07,51,8.90
2016,05,01,07,52,9.00
2016,05,01,07,53,9.00
2016,05,01,07,54,9.10
2016,05,01,07,55,9.20
2016,05,01,07,56,9.20
2016,05,01,07,57,9.30
2016,05,01,07,58,9.40
2016,05,01,07,59,9.40
2016,05,01,08,00,9.50
2016,05,01,08,01,9.60
2016,05,01,08,02,9.60
2016,05,01,08,03,9.70
2016,05,01,08,04,9.80
2016,05,01,08,05,9.90
2016,05,01,08,06,10.00
2016,05,01,08,07,10.00
2016,05,01,08,08,10.10
2016,05,01,08,09,10.20
2016,05,01,08,10,10.30
2016,05,01,08,11,10.40
2016,05,01,08,12,10.40
2016,05,01,08,13,10.50
2016,05,01,08,14,10.60
2016,05,01,08,15,10.70
2016,05,01,08,16,10.80
2016,05,01,08,17,11.00
2016,05,01,08,18,11.20
2016,05,01,08,19,11.50
2016,05,01,08,20,11.70
2016,05,01,08,21,11.90
2016,05,01,08,22,12.10
2016,05,01,08,23,12.30
2016,05,01,08,24,12.30
2016,05,01,08,25,12.40
2016,05,01,08,26,12.50
2016,05,01,08,27,12.60
2016,05,01,08,28,12.70
2016,05,01,08,29,12.80
2016,05,01,08,30,12.90
2016,05,01,08,31,13.00
2016,05,01,08,32,13.10
2016,05,01,08,33,13.10
2016,05,01,08,34,13.20
2016,05,01,08,35,13.20
2016,05,01,08,36,13.20
2016,05,01,08,37,13.30
2016,05,01,08,38,13.30
2016,05,01,08,39,13.30
2016,05,01,08,40,13.40
2016,05,01,08,41,13.40
2016,05,01,08,42,13.50
2016,05,01,08,43,13.60
2016,05,01,08,44,13.60
2016,05,01,08,45,13.70
2016,05,01,08,46,13.70
2016,05,01,08,47,13.70
2016,05,01,08,48,13.70
2016,05,01,08,49,13.70
2016,05,01,08,50,13.70
2016,05,01,08,51,13.70
2016,05,01,08,52,13.70
2016,05,01,08,53,13.70
2016,05,01,08,54,13.70
2016,05,01,08,55,13.70
2016,05,01,08,56,13.70
2016,05,01,08,57,13.70
2016,05,01,08,58,13.70
2016,05,01,08,59,13.70
2016,05,01,09,00,13.70
2016,05,01,09,01,13.80
2016,05,01,09,02,13.80
2016,05,01,09,03,13.80
2016,05,01,09,04,13.90
2016,05,01,09,05,13.90
2016,05,01,09,06,13.90
2016,05,01,09,07,14.00
2016,05,01,09,08,14.10
2016,05,01,09,09,14.10
2016,05,01,09,10,14.20
2016,05,01,09,11,14.20
2016,05,01,09,12,14.30
2016,05,01,09,13,14.30
2016,05,01,09,14,14.40
2016,05,01,09,15,14.40
2016,05,01,09,16,14.40
2016,05,01,09,17,14.40
2016,05,01,09,18,14.50
2016,05,01,09,19,14.50
2016,05,01,09,20,14.60
2016,05,01,09,21,14.60
2016,05,01,09,22,14.70
2016,05,01,09,23,14.70
2016,05,01,09,24,14.80
2016,05,01,09,25,14.80
2016,05,01,09,26,14.80
2016,05,01,09,27,14.80
2016,05,01,09,28,14.80
2016,05,01,09,29,14.80
2016,05,01,09,30,14.90
2016,05,01,09,31,14.90
2016,05,01,09,32,14.90
2016,05,01,09,33,14.90
2016,05,01,09,34,14.90
2016,05,01,09,35,14.90
2016,05,01,09,36,14.90
2016,05,01,09,37,14.90
2016,05,01,09,38,14.90
2016,05,01,09,39,14.90
2016,05,01,09,40,14.90
2016,05,01,09,41,15.00
2016,05,01,09,42,15.10
2016,05,01,09,43,15.10
2016,05,01,09,44,15.20
2016,05,01,09,45,15.20
2016,05,01,09,46,15.30
2016,05,01,09,47,15.30
2016,05,01,09,48,15.30
2016,05,01,09,49,15.40
2016,05,01,09,50,15.40
2016,05,01,09,51,15.50
2016,05,01,09,52,15.50
2016,05,01,09,53,15.60
2016,05,01,09,54,15.60
2016,05,01,09,55,15.70
2016,05,01,09,56,15.70
2016,05,01,09,57,15.80
2016,05,01,09,58,15.90
2016,05,01,09,59,15.90
2016,05,01,10,00,15.80
2016,05,01,10,01,15.80
2016,05,01,10,02,15.70
2016,05,01,10,03,15.70
2016,05,01,10,04,15.70
2016,05,01,10,05,15.70
2016,05,01,10,06,15.60
2016,05,01,10,07,15.50
2016,05,01,10,08,15.50
2016,05,01,10,09,15.40
2016,05,01,10,10,15.40
2016,05,01,10,11,15.30
2016,05,01,10,12,15.30
2016,05,01,10,13,15.20
2016,05,01,10,14,15.30
2016,05,01,10,15,15.30
2016,05,01,10,16,15.40
2016,05,01,10,17,15.40
2016,05,01,10,18,15.50
2016,05,01,10,19,15.50
2016,05,01,10,20,15.60
2016,05,01,10,21,15.70
2016,05,01,10,22,15.80
2016,05,01,10,23,15.80
2016,05,01,10,24,15.80
2016,05,01,10,25,15.80
2016,05,01,10,26,15.60
2016,05,01,10,27,15.50
2016,05,01,10,28,15.40
2016,05,01,10,29,15.30
2016,05,01,10,30,15.20
2016,05,01,10,31,15.20
2016,05,01,10,32,15.20
2016,05,01,10,33,15.30
2016,05,01,10,34,15.40
2016,05,01,10,35,15.40
2016,05,01,10,36,15.50
2016,05,01,10,37,15.50
2016,05,01,10,38,15.50
2016,05,01,10,39,15.50
2016,05,01,10,40,15.50
2016,05,01,10,41,15.50
2016,05,01,10,42,15.50
2016,05,01,10,43,15.50
2016,05,01,10,44,15.50
2016,05,01,10,45,15.40
2016,05,01,10,46,15.40
2016,05,01,10,47,15.40
2016,05,01,10,48,15.40
2016,05,01,10,49,15.40
2016,05,01,10,50,15.40
2016,05,01,10,51,15.50
2016,05,01,10,52,15.60
2016,05,01,10,53,15.80
2016,05,01,10,54,15.90
2016,05,01,10,55,16.00
2016,05,01,10,56,16.00
2016,05,01,10,57,16.10
2016,05,01,10,58,16.10
2016,05,01,10,59,16.10
2016,05,01,11,00,16.10
2016,05,01,11,01,16.20
2016,05,01,11,02,16.20
2016,05,01,11,03,16.20
2016,05,01,11,04,16.20
2016,05,01,11,05,16.20
2016,05,01,11,06,16.20
2016,05,01,11,07,16.20
2016,05,01,11,08,16.20
2016,05,01,11,09,16.10
2016,05,01,11,10,16.00
2016,05,01,11,11,16.00
2016,05,01,11,12,15.90
2016,05,01,11,13,16.00
2016,05,01,11,14,16.10
2016,05,01,11,15,16.20
2016,05,01,11,16,16.30
2016,05,01,11,17,16.30
2016,05,01,11,18,16.30
2016,05,01,11,19,16.20
2016,05,01,11,20,16.20
2016,05,01,11,21,16.00
2016,05,01,11,22,15.90
2016,05,01,11,23,15.90
2016,05,01,11,24,16.10
2016,05,01,11,25,16.20
2016,05,01,11,26,16.30
2016,05,01,11,27,16.50
2016,05,01,11,28,16.70
2016,05,01,11,29,16.70
2016,05,01,11,30,16.50
2016,05,01,11,31,16.40
2016,05,01,11,32,16.30
2016,05,01,11,33,16.20
2016,05,01,11,34,16.00
2016,05,01,11,35,15.90
2016,05,01,11,36,15.80
2016,05,01,11,37,15.80
2016,05,01,11,38,15.90
2016,05,01,11,39,15.90
2016,05,01,11,40,16.00
2016,05,01,11,41,16.10
2016,05,01,11,42,16.20
2016,05,01,11,43,16.30
2016,05,01,11,44,16.40
2016,05,01,11,45,16.50
2016,05,01,11,46,16.50
2016,05,01,11,47,16.50
2016,05,01,11,48,16.60
2016,05,01,11,49,16.70
2016,05,01,11,50,16.80
2016,05,01,11,51,16.80
2016,05,01,11,52,16.80
2016,05,01,11,53,16.80
2016,05,01,11,54,16.70
2016,05,01,11,55,16.50
2016,05,01,11,56,16.30
2016,05,01,11,57,16.20
2016,05,01,11,58,16.20
2016,05,01,11,59,16.20
2016,05,01,12,00,16.30
2016,05,01,12,01,16.40
2016,05,01,12,02,16.50
2016,05,01,12,03,16.70
2016,05,01,12,04,16.80
2016,05,01,12,05,16.70
2016,05,01,12,06,16.80
2016,05,01,12,07,16.70
2016,05,01,12,08,16.70
2016,05,01,12,09,16.70
2016,05,01,12,10,16.70
2016,05,01,12,11,16.70
2016,05,01,12,12,16.80
2016,05,01,12,13,16.80
2016,05,01,12,14,16.90
2016,05,01,12,15,17.00
2016,05,01,12,16,17.10
2016,05,01,12,17,17.30
2016,05,01,12,18,17.40
2016,05,01,12,19,17.50
2016,05,01,12,20,17.60
2016,05,01,12,21,17.60
2016,05,01,12,22,17.70
2016,05,01,12,23,17.70
2016,05,01,12,24,17.80
2016,05,01,12,25,17.90
2016,05,01,12,26,18.00
2016,05,01,12,27,18.10
2016,05,01,12,28,18.00
2016,05,01,12,29,17.90
2016,05,01,12,30,17.90
2016,05,01,12,31,17.90
2016,05,01,12,32,17.90
2016,05,01,12,33,17.80
2016,05,01,12,34,17.80
2016,05,01,12,35,17.80
2016,05,01,12,36,17.80
2016,05,01,12,37,17.80
2016,05,01,12,38,17.80
2016,05,01,12,39,17.90
2016,05,01,12,40,18.00
2016,05,01,12,41,18.20
2016,05,01,12,42,18.30
2016,05,01,12,43,18.40
2016,05,01,12,44,18.30
2016,05,01,12,45,18.40
2016,05,01,12,46,18.50
2016,05,01,12,47,18.60
2016,05,01,12,48,18.60
2016,05,01,12,49,18.70
2016,05,01,12,50,18.70
2016,05,01,12,51,18.70
2016,05,01,12,52,18.60
2016,05,01,12,53,18.50
2016,05,01,12,54,18.40
2016,05,01,12,55,18.40
2016,05,01,12,56,18.40
2016,05,01,12,57,18.50
2016,05,01,12,58,18.50
2016,05,01,12,59,18.60
2016,05,01,13,00,18.50
2016,05,01,13,01,18.30
2016,05,01,13,02,18.20
2016,05,01,13,03,18.10
2016,05,01,13,04,18.10
2016,05,01,13,05,18.10
2016,05,01,13,06,18.10
2016,05,01,13,07,18.00
2016,05,01,13,08,18.00
2016,05,01,13,09,18.00
2016,05,01,13,10,18.00
2016,05,01,13,11,18.10
2016,05,01,13,12,18.10
2016,05,01,13,13,18.20
2016,05,01,13,14,18.30
2016,05,01,13,15,18.40
2016,05,01,13,16,18.50
2016,05,01,13,17,18.50
2016,05,01,13,18,18.60
2016,05,01,13,19,18.70
2016,05,01,13,20,18.80
2016,05,01,13,21,18.90
2016,05,01,13,22,19.00
2016,05,01,13,23,19.00
2016,05,01,13,24,18.90
2016,05,01,13,25,18.70
2016,05,01,13,26,18.60
2016,05,01,13,27,18.60
2016,05,01,13,28,18.60
2016,05,01,13,29,18.60
2016,05,01,13,30,18.50
2016,05,01,13,31,18.50
2016,05,01,13,32,18.50
2016,05,01,13,33,18.60
2016,05,01,13,34,18.60
2016,05,01,13,35,18.60
2016,05,01,13,36,18.60
2016,05,01,13,37,18.60
2016,05,01,13,38,18.60
2016,05,01,13,39,18.70
2016,05,01,13,40,18.80
2016,05,01,13,41,18.80
2016,05,01,13,42,18.80
2016,05,01,13,43,18.80
2016,05,01,13,44,18.90
2016,05,01,13,45,18.90
2016,05,01,13,46,18.80
2016,05,01,13,47,18.80
2016,05,01,13,48,18.80
2016,05,01,13,49,18.80
2016,05,01,13,50,18.80
2016,05,01,13,51,18.80
2016,05,01,13,52,18.80
2016,05,01,13,53,18.80
2016,05,01,13,54,18.80
2016,05,01,13,55,18.90
2016,05,01,13,56,19.00
2016,05,01,13,57,19.10
2016,05,01,13,58,19.20
2016,05,01,13,59,19.20
2016,05,01,14,00,19.20
2016,05,01,14,01,19.10
2016,05,01,14,02,19.00
2016,05,01,14,03,18.90
2016,05,01,14,04,19.00
2016,05,01,14,05,19.00
2016,05,01,14,06,19.00
2016,05,01,14,07,19.00
2016,05,01,14,08,19.00
2016,05,01,14,09,19.00
2016,05,01,14,10,19.00
2016,05,01,14,11,19.00
2016,05,01,14,12,18.90
2016,05,01,14,13,18.90
2016,05,01,14,14,18.90
2016,05,01,14,15,19.00
2016,05,01,14,16,19.10
2016,05,01,14,17,19.20
2016,05,01,14,18,19.20
2016,05,01,14,19,19.30
2016,05,01,14,20,19.30
2016,05,01,14,21,19.40
2016,05,01,14,22,19.40
2016,05,01,14,23,19.40
2016,05,01,14,24,19.40
2016,05,01,14,25,19.30
2016,05,01,14,26,19.30
2016,05,01,14,27,19.20
2016,05,01,14,28,19.20
2016,05,01,14,29,19.20
2016,05,01,14,30,19.20
2016,05,01,14,31,19.20
2016,05,01,14,32,19.20
2016,05,01,14,33,19.20
2016,05,01,14,34,19.20
2016,05,01,14,35,19.20
2016,05,01,14,36,19.20
2016,05,01,14,37,19.20
2016,05,01,14,38,19.30
2016,05,01,14,39,19.30
2016,05,01,14,40,19.30
2016,05,01,14,41,19.30
2016,05,01,14,42,19.30
2016,05,01,14,43,19.30
2016,05,01,14,44,19.30
2016,05,01,14,45,19.40
2016,05,01,14,46,19.50
2016,05,01,14,47,19.50
2016,05,01,14,48,19.60
2016,05,01,14,49,19.70
2016,05,01,14,50,19.70
2016,05,01,14,51,19.90
2016,05,01,14,52,20.00
2016,05,01,14,53,20.00
2016,05,01,14,54,20.10
2016,05,01,14,55,20.10
2016,05,01,14,56,20.20
2016,05,01,14,57,20.10
2016,05,01,14,58,20.10
2016,05,01,14,59,20.10
2016,05,01,15,00,20.00
2016,05,01,15,01,20.00
2016,05,01,15,02,20.00
2016,05,01,15,03,20.10
2016,05,01,15,04,20.10
2016,05,01,15,05,20.10
2016,05,01,15,06,20.00
2016,05,01,15,07,19.90
2016,05,01,15,08,19.90
2016,05,01,15,09,19.90
2016,05,01,15,10,20.00
2016,05,01,15,11,20.10
2016,05,01,15,12,20.10
2016,05,01,15,13,20.20
2016,05,01,15,14,20.20
2016,05,01,15,15,20.20
2016,05,01,15,16,20.10
2016,05,01,15,17,20.00
2016,05,01,15,18,19.90
2016,05,01,15,19,19.90
2016,05,01,15,20,19.90
2016,05,01,15,21,19.90
2016,05,01,15,22,20.00
2016,05,01,15,23,20.00
2016,05,01,15,24,20.10
2016,05,01,15,25,20.10
2016,05,01,15,26,20.20
2016,05,01,15,27,20.30
2016,05,01,15,28,20.30
2016,05,01,15,29,20.30
2016,05,01,15,30,20.30
2016,05,01,15,31,20.30
2016,05,01,15,32,20.30
2016,05,01,15,33,20.40
2016,05,01,15,34,20.50
2016,05,01,15,35,20.60
2016,05,01,15,36,20.70
2016,05,01,15,37,20.80
2016,05,01,15,38,20.80
2016,05,01,15,39,20.80
2016,05,01,15,40,20.80
2016,05,01,15,41,20.80
2016,05,01,15,42,20.70
2016,05,01,15,43,20.70
2016,05,01,15,44,20.60
2016,05,01,15,45,20.50
2016,05,01,15,46,20.50
2016,05,01,15,47,20.50
2016,05,01,15,48,20.50
2016,05,01,15,49,20.60
2016,05,01,15,50,20.60
2016,05,01,15,51,20.60
2016,05,01,15,52,20.70
2016,05,01,15,53,20.70
2016,05,01,15,54,20.70
2016,05,01,15,55,20.60
2016,05,01,15,56,20.60
2016,05,01,15,57,20.70
2016,05,01,15,58,20.80
2016,05,01,15,59,20.80
2016,05,01,16,00,20.80
2016,05,01,16,01,20.80
2016,05,01,16,02,20.80
2016,05,01,16,03,20.80
2016,05,01,16,04,20.80
2016,05,01,16,05,20.80
2016,05,01,16,06,20.80
2016,05,01,16,07,20.80
2016,05,01,16,08,20.70
2016,05,01,16,09,20.80
2016,05,01,16,10,20.80
2016,05,01,16,11,20.80
2016,05,01,16,12,20.90
2016,05,01,16,13,20.90
2016,05,01,16,14,21.00
2016,05,01,16,15,21.00
2016,05,01,16,16,20.90
2016,05,01,16,17,21.00
2016,05,01,16,18,21.00
2016,05,01,16,19,21.10
2016,05,01,16,20,21.10
2016,05,01,16,21,21.00
2016,05,01,16,22,20.90
2016,05,01,16,23,20.90
2016,05,01,16,24,21.00
2016,05,01,16,25,21.00
2016,05,01,16,26,21.10
2016,05,01,16,27,21.10
2016,05,01,16,28,21.10
2016,05,01,16,29,21.10
2016,05,01,16,30,21.10
2016,05,01,16,31,21.20
2016,05,01,16,32,21.20
2016,05,01,16,33,21.20
2016,05,01,16,34,21.30
2016,05,01,16,35,21.20
2016,05,01,16,36,21.20
2016,05,01,16,37,21.20
2016,05,01,16,38,21.20
2016,05,01,16,39,21.10
2016,05,01,16,40,21.10
2016,05,01,16,41,21.10
2016,05,01,16,42,21.10
2016,05,01,16,43,21.10
2016,05,01,16,44,21.10
2016,05,01,16,45,21.10
2016,05,01,16,46,21.10
2016,05,01,16,47,21.20
2016,05,01,16,48,21.20
2016,05,01,16,49,21.20
2016,05,01,16,50,21.30
2016,05,01,16,51,21.30
2016,05,01,16,52,21.30
2016,05,01,16,53,21.20
2016,05,01,16,54,21.20
2016,05,01,16,55,21.20
2016,05,01,16,56,21.20
2016,05,01,16,57,21.20
2016,05,01,16,58,21.20
2016,05,01,16,59,21.20
2016,05,01,17,00,21.30
2016,05,01,17,01,21.30
2016,05,01,17,02,21.40
2016,05,01,17,03,21.40
2016,05,01,17,04,21.50
2016,05,01,17,05,21.60
2016,05,01,17,06,21.70
2016,05,01,17,07,21.70
2016,05,01,17,08,21.80
2016,05,01,17,09,21.90
2016,05,01,17,10,22.00
2016,05,01,17,11,22.00
2016,05,01,17,12,22.00
2016,05,01,17,13,22.00
2016,05,01,17,14,22.10
2016,05,01,17,15,22.10
2016,05,01,17,16,22.10
2016,05,01,17,17,22.10
2016,05,01,17,18,22.20
2016,05,01,17,19,22.20
2016,05,01,17,20,22.10
2016,05,01,17,21,21.90
2016,05,01,17,22,21.80
2016,05,01,17,23,21.60
2016,05,01,17,24,21.50
2016,05,01,17,25,21.30
2016,05,01,17,26,21.30
2016,05,01,17,27,21.30
2016,05,01,17,28,21.30
2016,05,01,17,29,21.30
2016,05,01,17,30,21.40
2016,05,01,17,31,21.50
2016,05,01,17,32,21.70
2016,05,01,17,33,21.80
2016,05,01,17,34,21.90
2016,05,01,17,35,22.00
2016,05,01,17,36,22.00
2016,05,01,17,37,22.10
2016,05,01,17,38,22.20
2016,05,01,17,39,22.30
2016,05,01,17,40,22.40